ATLAS AGENA R/B, 27785

Orbit data source: Space-Track

ATLAS AGENA R/B, 27785 is space debris in GEO originally from a launch on Tue, 06 Aug 1968 UTC launched from the Air Force Eastern Test Range (AFETR). Debris objects in space refer to the collection of defunct objects orbiting the Earth. Examples of debris include non-operational satellites, rocket bodies, and fragments generated from explosions, collisions, or faulty payload assembly.

Not visible in the next 10 days
Identifier
27785, 1968-063B
Orbit
GEO
Country
Flag of USUS
Related business
Manufacturer
LMSC
Mission
Spacecraft
Bus & Motor
AGENA D, Unknown motor
Mass
~555 kg wet, 555 kg dry
Launch date (UTC)
1968-08-06 (57 years ago)
Launch vehicle
Unknown
Launch site
Air Force Eastern Test Range (AFETR)
Object type
Payload
Rocket body
Debris
Shape & HBR
Unknown
Radar Cross Section
RCS unknown

Expand to show TLE details & history
Last TLE update: 17 hours ago

TLE from 17 hours ago
0 ATLAS AGENA R/B
1 27785U 68063B   25303.24395011 -.00000186  00000-0  00000-0 0  9996
2 27785   4.9716 269.5424 1022647 258.4546  89.7920  1.01773727 24046
Epoch: 2025-10-30T05:51Z
TLE epoch observation values (Epoch: 2025-10-30T05:51:17.289Z)
Latitude
Longitude
142.76909°
Altitude
35,767.762 km
Speed
3.061 km/s
True Right ascension
17h 57m 35s
True Declination
0° 00' 00"
Sunlit
Object was in daylight at epoch
Visualization orbit readout
Latitude
Unknown
Longitude
Unknown
Altitude
Unknown
Speed
Unknown
Apparent Right ascension
Unknown
Apparent Declination
Unknown
Sunlit
N/A
Visualization observer readout
Local Sidereal Time
18:19:15
Azimuth
Unknown
Elevation
Unknown
Doppler factor
Unknown
Orbital elements
Apogee altitude
39,641.365 km
Perigee altitude
31,102.271 km
Semi-major axis
41,749.955 km
Eccentricity
0.10226
Inclination
4.9716°
RAAN
269.5424°
Arg. of periapsis
258.4546°
True anomaly
101.43539°
Mean anomaly
89.792°
Eccentric anomaly
95.62314°
Mean motion
0.25442 °/min
Orbital period
1,414.96 mins
BSTAR
0
Loading maneuver chart data...
Computing Atmospheric mass density...
Loading historical data...
Loading historical data...
Loading historical data...
Loading historical data...
Loading historical data...
Loading historical data...
Loading historical data...
Other satellites on launch #63 in the year 1968 (1968-08-06 UTC)

Documentation

Showing up to 5 results
|